This is the latest recevied weather packets stored in our database for station/object NUUKSIO. If no packets are shown the sender has not sent any weather packets the latest 10 day(s).
| Time | Temp. | Humidity | Pressure | Rain* | Wind** | Luminosity | Snow |
|---|---|---|---|---|---|---|---|
| 1777856831 | 7.78° C | 53% | 1007 hPa | 0 mm | - | - | - |
| 1777855630 | 8.33° C | 54% | 1006.8 hPa | 0 mm | - | - | - |
| 1777854431 | 8.89° C | 54% | 1007 hPa | 0 mm | - | - | - |
| 1777853230 | 9.44° C | 52% | 1007 hPa | 0 mm | - | - | - |
| 1777852030 | 9.44° C | 56% | 1007.1 hPa | 0 mm | - | - | - |
| 1777850830 | 10° C | 61% | 1007.1 hPa | 0 mm | - | - | - |
| 1777849630 | 10° C | 61% | 1007.2 hPa | 0 mm | - | - | - |
| 1777848430 | 10.56° C | 64% | 1007.3 hPa | 0 mm | - | - | - |
| 1777847230 | 10.56° C | 58% | 1007.3 hPa | 0 mm | - | - | - |
| 1777846029 | 10.56° C | 62% | 1007.4 hPa | 0 mm | - | - | - |
| 1777844829 | 11.11° C | 64% | 1007.5 hPa | 0 mm | - | - | - |
| 1777843629 | 11.11° C | 65% | 1007.4 hPa | 0 mm | - | - | - |
| 1777842429 | 11.11° C | 70% | 1007.5 hPa | 0 mm | - | - | - |
| 1777841229 | 11.11° C | 71% | 1007.3 hPa | 0 mm | - | - | - |
| 1777840029 | 11.67° C | 68% | 1007.5 hPa | 0 mm | - | - | - |
| 1777838829 | 11.67° C | 68% | 1007.5 hPa | 0 mm | - | - | - |
| 1777837628 | 11.67° C | 68% | 1007.6 hPa | 0 mm | - | - | - |
| 1777836429 | 11.67° C | 67% | 1007.7 hPa | 0 mm | - | - | - |
| 1777835229 | 12.22° C | 64% | 1007.6 hPa | 0 mm | - | - | - |
| 1777834029 | 12.22° C | 63% | 1007.6 hPa | 0 mm | - | - | - |
| 1777832828 | 12.78° C | 62% | 1007.5 hPa | 0 mm | - | - | - |
| 1777831628 | 12.78° C | 60% | 1007.5 hPa | 0 mm | - | - | - |
| 1777830429 | 13.33° C | 60% | 1007.3 hPa | 0 mm | - | - | - |
| 1777829235 | 13.33° C | 59% | 1007.3 hPa | 0 mm | - | - | - |
| 1777828028 | 13.89° C | 56% | 1007.2 hPa | 0 mm | - | - | - |
* Rain latest hour (hover to see other rain measurements)
** Current wind speed in m/s (hover to see current wind gust speed)